DW2489 Weather Reports


Display with metric or nautical units.
time (UTC)temp
F
wind
direction
speed
MPH
gust
MPH
rain 1hr
in
rain 24hr
in
rain mn
in
humidity
%
barometer
mb
20260904030032 66 302 0.0 0.0 0.00 0.01 0.00 1012.1
20260904025533 67 302 0.0 0.0 0.00 0.01 0.00 1012.4
20260904025032 67 302 0.0 0.0 0.00 0.01 0.00 1012.4
20260904024532 67 302 0.0 0.0 0.00 0.01 0.00 1012.5
20260904024032 67 302 0.0 0.0 0.00 0.01 0.00 1012.5
20260904023532 67 302 0.0 0.0 0.00 0.01 0.00 1012.5
20260904023032 68 302 0.0 0.0 0.00 0.01 0.00 1012.7
20260904022533 68 302 0.0 0.0 0.00 0.01 0.00 1012.8
20260904022032 68 302 0.0 0.0 0.00 0.01 0.00 1012.9
20260904021532 68 302 0.0 0.0 0.00 0.01 0.00 1012.9
20260904021032 68 302 0.0 0.0 0.00 0.01 0.00 1012.8
20260904020532 68 302 0.0 0.0 0.00 0.01 0.00 1012.8
20260904020032 69 302 0.0 0.0 0.00 0.01 0.00 1012.7
20260904015602 69 302 0.0 0.0 0.00 0.01 0.00 1012.7
20260904015032 69 302 0.0 0.0 0.00 0.01 0.00 1012.8
20260904014532 69 302 0.0 0.0 0.00 0.01 0.00 1012.8
20260904014033 69 302 0.0 0.0 0.00 0.01 0.00 1012.7
20260904013532 69 302 0.0 0.0 0.00 0.01 0.00 1012.7
20260904013032 69 302 0.0 0.0 0.00 0.01 0.00 1012.7
20260904012532 70 302 0.0 0.0 0.00 0.01 0.00 1012.7
20260904012117 70 302 0.0 0.0 0.00 0.01 0.00 1012.6
20260904011532 70 302 0.0 0.0 0.00 0.01 0.00 1012.6
20260904011032 70 302 0.0 0.0 0.00 0.01 0.00 1012.5
20260904010532 70 302 0.0 0.0 0.00 0.01 0.00 1012.7
20260904005532 71 302 0.0 0.0 0.00 0.01 0.00 1012.6
20260904005032 71 302 0.0 2.0 0.00 0.01 0.00 1012.6
20260904004532 71 302 0.0 2.0 0.00 0.01 0.00 1012.7
20260904004032 71 302 0.0 0.0 0.00 0.01 0.00 1012.8
20260904003502 71 302 0.0 0.0 0.00 0.01 0.00 1012.8
20260904003032 71 302 0.0 6.0 0.00 0.01 0.00 1012.8
20260904002532 71 302 0.0 6.0 0.00 0.01 0.00 1012.6
20260904002047 71 302 0.0 5.0 0.00 0.01 0.00 1012.5
20260904001532 71 302 0.0 0.0 0.00 0.01 0.00 1012.6
20260904001032 72 302 0.0 2.0 0.00 0.01 0.00 1012.3
20260904000532 72 302 0.0 2.0 0.00 0.01 0.00 1012.2
20260903235532 72 302 0.0 0.0 0.00 0.01 0.00 1012.1
20260903235002 72 302 0.0 3.0 0.00 0.01 0.00 1012.1
20260903234532 72 302 0.0 3.0 0.00 0.01 0.00 1011.8
20260903234032 73 302 0.0 2.0 0.00 0.01 0.00 1011.9
20260903233532 73 302 0.0 0.0 0.00 0.01 0.00 1011.8
20260903233102 73 302 0.0 3.0 0.00 0.01 0.00 1011.9
20260903232532 73 302 0.0 3.0 0.00 0.01 0.00 1011.9
20260903232032 73 302 0.0 3.0 0.00 0.01 0.00 1011.8
20260903231532 74 302 0.0 0.0 0.00 0.01 0.00 1011.8
20260903231032 74 302 0.0 0.0 0.00 0.01 0.00 1011.8
20260903230532 74 302 0.0 0.0 0.00 0.01 0.00 1011.7
20260903230032 75 302 0.0 0.0 0.00 0.01 0.00 1012.0
20260903225532 75 302 0.0 2.0 0.00 0.01 0.00 1011.9
20260903225032 75 302 0.0 2.0 0.00 0.01 0.00 1011.9
20260903224532 76 302 0.0 0.0 0.00 0.01 0.00 1012.0
20260903224047 76 302 0.0 0.0 0.00 0.01 0.00 1011.8
20260903223547 77 302 0.0 0.0 0.00 0.01 0.00 1011.9
20260903223032 77 302 0.0 0.0 0.00 0.01 0.00 1011.9
20260903222532 78 302 0.0 0.0 0.00 0.01 0.00 1012.0
20260903222033 78 302 0.0 0.0 0.00 0.01 0.00 1011.9
20260903221532 78 302 0.0 0.0 0.00 0.01 0.00 1012.0
20260903221032 79 302 0.0 0.0 0.00 0.01 0.00 1011.8
20260903220532 80 302 0.0 0.0 0.00 0.01 0.00 1011.9
20260903220032 80 302 0.0 5.0 0.00 0.01 0.00 1011.9
20260903215532 81 302 0.0 9.0 0.00 0.01 0.00 1011.7
20260903215032 82 302 0.0 9.0 0.00 0.01 0.00 1011.6
20260903214532 82 259 0.0 5.0 0.00 0.01 0.00 1011.4
20260903214047 82 258 0.0 5.0 0.00 0.01 0.00 1011.6
20260903213532 82 253 0.0 6.0 0.00 0.01 0.00 1011.5
20260903213033 82 243 0.0 8.0 0.00 0.01 0.00 1011.6
20260903212532 83 288 2.0 9.0 0.00 0.01 0.00 1011.8
20260903212033 83 269 0.0 9.0 0.00 0.01 0.00 1011.8
20260903211602 83 275 0.0 5.0 0.00 0.01 0.00 1011.8
20260903211033 83 214 0.0 9.0 0.00 0.01 0.00 1011.8
20260903210532 83 302 0.0 13.0 0.00 0.01 0.00 1011.8
20260903210033 83 265 3.0 13.0 0.00 0.01 0.00 1011.9
20260903205533 83 292 9.0 13.0 0.00 0.01 0.00 1012.0
20260903205032 83 284 7.0 11.0 0.00 0.01 0.00 1012.0
20260903204532 83 223 1.0 11.0 0.00 0.01 0.00 1011.9
20260903204047 83 291 3.0 8.0 0.00 0.01 0.00 1011.8
20260903203547 83 277 3.0 13.0 0.00 0.01 0.00 1011.9
20260903203032 83 299 1.0 13.0 0.00 0.01 0.00 1011.7
20260903202532 83 274 5.0 14.0 0.00 0.01 0.00 1011.8
20260903202047 83 271 5.0 14.0 0.00 0.01 0.00 1011.9
20260903201603 82 299 6.0 11.0 0.00 0.01 0.00 1011.6
20260903201032 82 284 0.0 11.0 0.00 0.01 0.00 1011.6
20260903200532 82 259 0.0 17.0 0.00 0.01 0.00 1011.7
20260903200032 82 290 3.0 17.0 0.00 0.01 0.00 1011.7
20260903195533 82 282 0.0 9.0 0.00 0.01 0.00 1011.5
20260903195032 82 294 5.0 9.0 0.00 0.01 0.00 1011.5
20260903194532 82 288 3.0 9.0 0.00 0.01 0.00 1011.9
20260903194032 81 275 3.0 8.0 0.00 0.01 0.00 1012.0
20260903193532 81 285 3.0 6.0 0.00 0.01 0.00 1012.0
20260903193032 81 288 0.0 6.0 0.00 0.01 0.00 1011.8
20260903192532 81 277 2.0 5.0 0.00 0.01 0.00 1011.9
20260903192032 81 276 0.0 6.0 0.00 0.01 0.00 1012.1
20260903191532 81 258 2.0 6.0 0.00 0.01 0.00 1011.9
20260903191032 81 280 2.0 6.0 0.00 0.01 0.00 1012.1
20260903190532 81 345 0.0 8.0 0.00 0.01 0.00 1012.1
20260903190032 81 268 1.0 8.0 0.00 0.01 0.00 1012.4
20260903185547 80 278 3.0 9.0 0.00 0.01 0.00 1012.4
20260903185033 80 291 1.0 9.0 0.00 0.01 0.00 1012.4
20260903184532 79 266 0.0 9.0 0.00 0.01 0.00 1012.4
20260903184032 79 266 0.0 13.0 0.00 0.01 0.00 1012.4
20260903183532 79 283 7.0 13.0 0.00 0.01 0.00 1012.5
20260903183032 79 264 3.0 9.0 0.00 0.01 0.00 1012.5
20260903182547 78 159 0.0 6.0 0.00 0.01 0.00 1012.5
20260903182031 78 184 3.0 6.0 0.00 0.01 0.00 1012.5
20260903181532 77 205 1.0 6.0 0.00 0.01 0.00 1012.5
20260903181031 77 151 0.0 5.0 0.00 0.02 0.00 1012.6
20260903180531 77 151 0.0 5.0 0.00 0.08 0.00 1012.7
20260903180031 76 151 0.0 5.0 0.00 0.08 0.00 1012.6
20260903175531 76 151 0.0 6.0 0.00 0.08 0.00 1012.7
20260903175031 76 151 2.0 6.0 0.00 0.08 0.00 1012.7
20260903174532 76 317 0.0 5.0 0.00 0.08 0.00 1012.8
20260903174032 75 317 0.0 5.0 0.00 0.08 0.00 1012.8
20260903173531 75 317 0.0 3.0 0.00 0.08 0.00 1013.1
20260903173031 75 317 1.0 3.0 0.00 0.08 0.00 1013.0
20260903172531 75 317 0.0 2.0 0.00 0.08 0.00 1013.1
20260903172101 75 317 0.0 3.0 0.00 0.08 0.00 1013.1
20260903171534 75 317 0.0 5.0 0.00 0.08 0.00 1013.1
20260903171032 75 317 2.0 5.0 0.00 0.08 0.00 1013.2
20260903170531 76 174 0.0 8.0 0.00 0.08 0.00 1013.1
20260903170031 76 121 3.0 8.0 0.00 0.08 0.00 1013.2
20260903165532 76 301 1.0 9.0 0.00 0.08 0.00 1013.3
20260903165046 75 306 3.0 9.0 0.00 0.08 0.00 1013.1
20260903164533 75 268 0.0 3.0 0.00 0.08 0.00 1013.1
20260903164031 75 268 0.0 5.0 0.00 0.08 0.00 1013.2
20260903163531 74 268 0.0 5.0 0.00 0.08 0.00 1013.2
20260903163046 74 252 0.0 5.0 0.00 0.08 0.00 1013.3
20260903162531 74 265 0.0 3.0 0.00 0.08 0.00 1013.4
20260903162032 74 263 0.0 3.0 0.00 0.08 0.00 1013.5
20260903161032 73 297 0.0 5.0 0.00 0.08 0.00 1013.7
20260903160531 73 297 0.0 0.0 0.00 0.08 0.00 1013.7
20260903160032 73 297 0.0 5.0 0.00 0.08 0.00 1013.6
20260903155531 73 297 0.0 5.0 0.00 0.08 0.00 1013.8
20260903155031 73 297 1.0 5.0 0.00 0.08 0.00 1013.8
20260903154601 73 294 0.0 5.0 0.00 0.08 0.00 1013.6
20260903154031 73 292 1.0 6.0 0.00 0.08 0.00 1013.8
20260903153532 73 215 0.0 6.0 0.00 0.08 0.00 1013.7
20260903153031 72 265 0.0 3.0 0.00 0.08 0.00 1013.6
20260903152532 72 265 0.0 3.0 0.00 0.08 0.00 1013.7
20260903152031 72 265 0.0 3.0 0.00 0.08 0.00 1013.7
20260903151532 72 265 0.0 3.0 0.00 0.08 0.00 1013.6
20260903151046 72 301 0.0 3.0 0.00 0.08 0.00 1013.6
20260903150601 72 301 0.0 3.0 0.00 0.08 0.00 1013.7
20260903150031 72 301 0.0 0.0 0.00 0.08 0.00 1013.8
20260903145532 71 301 0.0 0.0 0.00 0.08 0.00 1013.8
20260903145002 71 301 0.0 3.0 0.00 0.08 0.00 1013.7
20260903144531 71 301 0.0 3.0 0.00 0.08 0.00 1013.6
20260903144046 71 301 0.0 3.0 0.00 0.08 0.00 1013.7
20260903143532 71 301 0.0 3.0 0.00 0.08 0.00 1013.7
20260903143031 71 301 0.0 3.0 0.00 0.08 0.00 1013.8
20260903142531 71 301 0.0 3.0 0.00 0.08 0.00 1013.7
20260903142031 71 301 0.0 0.0 0.00 0.08 0.00 1013.7
20260903141531 70 301 0.0 2.0 0.00 0.08 0.00 1013.6
20260903141031 70 301 0.0 2.0 0.00 0.08 0.00 1013.8
20260903140546 70 301 0.0 5.0 0.00 0.08 0.00 1013.6
20260903140032 70 301 0.0 5.0 0.00 0.08 0.00 1013.6
20260903135531 70 301 3.0 5.0 0.00 0.08 0.00 1013.6
20260903135031 70 149 0.0 5.0 0.00 0.08 0.00 1013.5
20260903134531 70 148 0.0 5.0 0.00 0.08 0.00 1013.5
20260903134032 69 307 0.0 5.0 0.00 0.08 0.00 1013.6
20260903133531 69 307 2.0 3.0 0.00 0.08 0.00 1013.6
20260903133031 69 307 2.0 5.0 0.00 0.08 0.00 1013.4
20260903132546 69 307 2.0 5.0 0.00 0.08 0.00 1013.6
20260903132002 69 307 2.0 5.0 0.00 0.08 0.00 1013.6
20260903131531 69 307 0.0 3.0 0.00 0.08 0.00 1013.9
20260903131031 68 307 0.0 5.0 0.00 0.08 0.00 1013.7
20260903130531 68 307 0.0 5.0 0.00 0.08 0.00 1013.8
20260903130031 68 307 1.0 3.0 0.00 0.08 0.00 1013.9
20260903125531 68 307 0.0 2.0 0.00 0.08 0.00 1013.9
20260903125031 68 307 0.0 3.0 0.00 0.08 0.00 1013.9
20260903124601 68 307 0.0 3.0 0.00 0.08 0.00 1013.9
20260903124031 68 307 0.0 3.0 0.00 0.08 0.00 1013.9
20260903123531 67 307 0.0 0.0 0.00 0.08 0.00 1014.0
20260903123031 67 307 0.0 0.0 0.00 0.08 0.00 1014.1
20260903122531 67 307 0.0 0.0 0.00 0.08 0.00 1014.1
20260903122031 67 307 0.0 0.0 0.00 0.08 0.00 1014.0
20260903121531 67 307 0.0 0.0 0.00 0.08 0.00 1014.1
20260903121101 67 307 0.0 0.0 0.00 0.08 0.00 1014.1
20260903120531 67 307 0.0 0.0 0.00 0.08 0.00 1014.1
20260903120031 67 307 0.0 0.0 0.00 0.08 0.00 1014.1
20260903115601 66 307 0.0 0.0 0.00 0.08 0.00 1014.0
20260903115031 66 307 0.0 0.0 0.00 0.08 0.00 1014.2
20260903114533 66 307 0.0 0.0 0.00 0.08 0.00 1014.2
20260903114031 66 307 0.0 0.0 0.00 0.08 0.00 1014.2
20260903113531 66 307 0.0 3.0 0.00 0.08 0.00 1014.2
20260903113032 66 307 0.0 3.0 0.00 0.08 0.00 1014.2
20260903112532 66 307 0.0 0.0 0.00 0.08 0.00 1014.2
20260903112046 66 307 0.0 0.0 0.00 0.08 0.00 1014.3
20260903111531 66 307 0.0 0.0 0.00 0.08 0.00 1014.3
20260903111031 66 307 0.0 0.0 0.00 0.08 0.00 1014.2
20260903110531 66 307 0.0 3.0 0.00 0.08 0.00 1014.2
20260903110031 66 307 0.0 3.0 0.00 0.08 0.00 1014.1
20260903105531 66 307 0.0 0.0 0.00 0.08 0.00 1014.1
20260903105031 66 307 0.0 0.0 0.00 0.08 0.00 1014.0
20260903104531 66 307 0.0 0.0 0.00 0.08 0.00 1014.1
20260903104032 66 307 0.0 0.0 0.00 0.08 0.00 1014.1
20260903103531 66 307 0.0 0.0 0.00 0.08 0.00 1014.0
20260903103031 66 307 0.0 0.0 0.00 0.08 0.00 1013.9
20260903102601 66 307 0.0 0.0 0.00 0.08 0.00 1013.9
20260903102031 66 307 0.0 0.0 0.00 0.08 0.00 1014.0
20260903101546 66 307 0.0 2.0 0.00 0.08 0.00 1013.9
20260903101031 66 307 0.0 2.0 0.00 0.08 0.00 1013.9
20260903100531 66 307 0.0 0.0 0.00 0.08 0.00 1013.9
20260903100031 66 307 0.0 0.0 0.00 0.08 0.00 1013.9
20260903095531 66 307 0.0 0.0 0.00 0.08 0.00 1013.8
20260903095033 66 307 0.0 0.0 0.00 0.08 0.00 1013.8
20260903094531 66 307 0.0 2.0 0.00 0.08 0.00 1013.8
20260903094031 66 307 0.0 2.0 0.00 0.08 0.00 1014.0
20260903093546 66 307 0.0 0.0 0.00 0.08 0.00 1013.9
20260903093031 66 307 0.0 0.0 0.00 0.08 0.00 1013.8
20260903092631 66 307 0.0 0.0 0.00 0.08 0.00 1013.7
20260903092031 66 307 0.0 0.0 0.00 0.08 0.00 1013.7
20260903091531 66 307 0.0 0.0 0.00 0.08 0.00 1013.9
20260903091031 66 307 0.0 0.0 0.00 0.08 0.00 1013.8
20260903090531 66 307 0.0 0.0 0.00 0.08 0.00 1013.9
20260903090032 66 307 0.0 0.0 0.00 0.08 0.00 1013.8
20260903085531 66 307 0.0 0.0 0.00 0.08 0.00 1013.9
20260903085031 66 307 0.0 0.0 0.00 0.08 0.00 1014.0
20260903084531 66 307 0.0 3.0 0.00 0.08 0.00 1014.0
20260903084131 66 307 0.0 3.0 0.00 0.08 0.00 1014.0
20260903083532 66 307 0.0 0.0 0.00 0.08 0.00 1014.0
20260903083031 66 307 0.0 3.0 0.00 0.08 0.00 1014.0
20260903082530 66 307 0.0 3.0 0.00 0.08 0.00 1014.1
20260903082031 66 307 0.0 6.0 0.00 0.08 0.00 1014.1
20260903081530 66 307 0.0 6.0 0.00 0.08 0.00 1014.2
20260903081030 66 238 1.0 5.0 0.00 0.08 0.00 1014.2
20260903080531 66 209 0.0 6.0 0.00 0.08 0.00 1014.2
20260903080031 66 199 0.0 11.0 0.00 0.08 0.00 1014.3
20260903075616 66 193 3.0 11.0 0.00 0.08 0.00 1014.3
20260903075031 66 257 0.0 6.0 0.00 0.08 0.00 1014.2
20260903074531 66 257 0.0 6.0 0.00 0.08 0.00 1014.4
20260903074046 66 254 0.0 3.0 0.00 0.08 0.00 1014.1
20260903073546 66 254 0.0 3.0 0.00 0.08 0.00 1014.2
20260903073030 65 265 0.0 3.0 0.00 0.08 0.00 1014.1
20260903072546 65 227 0.0 5.0 0.00 0.08 0.00 1014.1
20260903072102 65 227 2.0 5.0 0.00 0.08 0.00 1014.1
20260903071531 65 200 0.0 5.0 0.00 0.08 0.00 1014.2
20260903071031 65 154 0.0 5.0 0.00 0.08 0.00 1014.2
20260903070531 65 154 0.0 5.0 0.00 0.08 0.00 1014.1
20260903070031 65 154 0.0 3.0 0.00 0.08 0.00 1014.2
20260903065531 65 154 0.0 3.0 0.00 0.08 0.00 1014.2
20260903065032 65 154 2.0 5.0 0.00 0.08 0.00 1014.3
20260903064531 65 154 0.0 8.0 0.00 0.08 0.00 1014.2
20260903064031 65 196 1.0 8.0 0.00 0.08 0.00 1014.4
20260903063600 65 172 0.0 5.0 0.00 0.08 0.00 1014.4
20260903063031 65 149 0.0 6.0 0.00 0.08 0.00 1014.3
20260903062532 65 316 0.0 6.0 0.00 0.08 0.00 1014.3
20260903062031 65 172 0.0 6.0 0.00 0.08 0.00 1014.4
20260903061531 65 171 0.0 6.0 0.00 0.08 0.00 1014.5
20260903061031 65 328 0.0 5.0 0.00 0.08 0.00 1014.5
20260903060531 65 294 2.0 5.0 0.00 0.08 0.00 1014.5
20260903060031 65 160 1.0 5.0 0.00 0.08 0.00 1014.6
20260903055531 65 158 0.0 6.0 0.00 0.08 0.00 1014.7
20260903055030 65 164 0.0 6.0 0.00 0.08 0.00 1014.8
20260903054530 65 164 0.0 6.0 0.00 0.08 0.00 1014.8
20260903054031 65 164 0.0 6.0 0.00 0.08 0.00 1014.8
20260903053531 65 308 3.0 6.0 0.00 0.08 0.00 1015.0
20260903053032 65 189 2.0 6.0 0.00 0.08 0.00 1014.9
20260903052531 65 233 0.0 6.0 0.00 0.08 0.00 1015.0
20260903052031 65 276 0.0 5.0 0.00 0.09 0.00 1015.0
20260903051531 65 269 0.0 6.0 0.00 0.09 0.00 1015.3
20260903051046 65 227 0.0 6.0 0.00 0.09 0.00 1015.1
20260903050530 65 152 0.0 6.0 0.00 0.09 0.00 1015.3
20260903050031 65 152 0.0 6.0 0.00 0.09 0.00 1015.3
20260903045531 65 136 0.0 6.0 0.00 0.09 0.00 1015.2
20260903045032 65 264 0.0 6.0 0.00 0.09 0.00 1015.3
20260903044531 65 271 0.0 6.0 0.00 0.09 0.00 1015.5
20260903044031 65 174 2.0 9.0 0.01 0.09 0.00 1015.5
20260903043531 65 168 5.0 9.0 0.01 0.09 0.00 1015.4
20260903043047 65 179 0.0 9.0 0.01 0.09 0.00 1014.9
20260903042530 65 16 0.0 9.0 0.01 0.09 0.00 1015.2
20260903042031 65 197 0.0 13.0 0.01 0.09 0.00 1014.8
20260903041530 65 161 0.0 13.0 0.01 0.09 0.00 1015.0
20260903041030 65 185 0.0 8.0 0.01 0.09 0.00 1015.3
20260903040531 66 198 1.0 8.0 0.01 0.09 0.00 1015.4
20260903040031 66 215 1.0 5.0 0.01 0.09 0.00 1015.7
20260903035601 66 280 0.0 5.0 0.01 0.09 0.09 1015.6
20260903035030 66 194 1.0 5.0 0.01 0.09 0.09 1015.7
20260903034531 66 351 0.0 11.0 0.01 0.09 0.09 1015.6
20260903034030 66 190 0.0 11.0 0.00 0.08 0.08 1015.8
20260903033546 66 357 2.0 5.0 0.00 0.09 0.08 1015.8
20260903033030 66 193 2.0 5.0 0.00 0.09 0.08 1016.3
20260903032531 67 285 0.0 5.0 0.00 0.09 0.08 1016.5
20260903032045 67 143 1.0 5.0 0.00 0.09 0.08 1016.3
20260903031530 67 219 0.0 8.0 0.00 0.09 0.08 1016.3
20260903031031 67 182 1.0 8.0 0.00 0.09 0.08 1016.1
20260903030545 67 282 1.0 6.0 0.00 0.09 0.08 1016.2